UAL40 KEWR-LIRF

Flight info

Callsign UAL40
Flight time 7h 40m
Altitude 35000
Route DCT GREKI DCT JUDDS DCT MARTN DCT EBONY DCT TUDEP/M084F350 DCT 52N050W 54N040W 55N030W 55N020W DCT DOGAL/N0486F350 DCT BEXET/N0486F370 DCT LEDGO DCT NAKID DCT LIZAD DCT JSY DCT ARSUK DCT RESMI DCT ODEBU UL612 OGULO DCT OKASI DCT OKEKO DCT MOU DCT MADIV DCT MOKIP DCT TUFTA DCT KOGAS DCT MEDAM DCT NITAM DCT MOGBO DCT ELB DCT ELKAP DCT
Aircraft B77W/H-SDE1E2E3FGHIJ2J3J4J5M1RWXY/LB1D1

Departure

Time 2026-05-07 19:12
Airport Newark Liberty International Airport (KEWR)

Arrival

Time 2026-05-08 02:53
Airport Rome–Fiumicino Leonardo da Vinci International Airport (LIRF)
Time Latitude Longitude Altitude Speed Heading
2026-05-07 18:18 40.69929 -74.17953 11 ft 0 kts 184°
2026-05-07 18:51 40.69942 -74.17953 26 ft 2 kts 172°
2026-05-07 18:51 40.69959 -74.17955 26 ft 2 kts 161°
2026-05-07 18:51 40.69974 -74.17962 26 ft 2 kts 148°
2026-05-07 18:51 40.69988 -74.17976 25 ft 2 kts 129°
2026-05-07 18:52 40.69997 -74.17994 26 ft 2 kts 111°
2026-05-07 18:52 40.70002 -74.18015 24 ft 2 kts 98°
2026-05-07 18:52 40.70003 -74.18026 25 ft 0 kts 94°
2026-05-07 18:59 40.70003 -74.18025 27 ft 1 kts 94°
2026-05-07 19:00 40.70001 -74.18003 34 ft 4 kts 95°
2026-05-07 19:00 40.69998 -74.17948 27 ft 8 kts 95°
2026-05-07 19:00 40.69992 -74.17863 27 ft 10 kts 95°
2026-05-07 19:00 40.69985 -74.17768 27 ft 10 kts 95°
2026-05-07 19:01 40.69979 -74.17674 27 ft 10 kts 95°
2026-05-07 19:01 40.69972 -74.17579 27 ft 10 kts 95°
2026-05-07 19:01 40.69966 -74.17484 27 ft 10 kts 98°
2026-05-07 19:01 40.69948 -74.17393 27 ft 10 kts 111°
2026-05-07 19:02 40.69913 -74.17310 27 ft 10 kts 125°
2026-05-07 19:02 40.69868 -74.17235 27 ft 10 kts 131°
2026-05-07 19:02 40.69818 -74.17168 27 ft 10 kts 137°
2026-05-07 19:02 40.69762 -74.17109 27 ft 10 kts 144°
2026-05-07 19:03 40.69700 -74.17060 27 ft 10 kts 151°
2026-05-07 19:03 40.69634 -74.17022 27 ft 10 kts 161°
2026-05-07 19:03 40.69565 -74.16994 27 ft 10 kts 166°
2026-05-07 19:03 40.69494 -74.16977 27 ft 10 kts 172°
2026-05-07 19:04 40.69422 -74.16972 27 ft 10 kts 180°
2026-05-07 19:04 40.69350 -74.16979 27 ft 10 kts 186°
2026-05-07 19:04 40.69280 -74.17000 27 ft 10 kts 200°
2026-05-07 19:04 40.69214 -74.17040 27 ft 10 kts 205°
2026-05-07 19:05 40.69149 -74.17081 27 ft 10 kts 206°
2026-05-07 19:05 40.69085 -74.17122 26 ft 10 kts 205°
2026-05-07 19:05 40.69019 -74.17163 26 ft 10 kts 205°
2026-05-07 19:05 40.68954 -74.17205 27 ft 10 kts 206°
2026-05-07 19:06 40.68889 -74.17247 27 ft 10 kts 206°
2026-05-07 19:06 40.68759 -74.17330 27 ft 10 kts 206°
2026-05-07 19:06 40.68695 -74.17371 28 ft 10 kts 205°
2026-05-07 19:07 40.68629 -74.17412 28 ft 10 kts 205°
2026-05-07 19:07 40.68565 -74.17453 28 ft 10 kts 205°
2026-05-07 19:07 40.68499 -74.17495 28 ft 10 kts 205°
2026-05-07 19:07 40.68433 -74.17537 27 ft 10 kts 206°
2026-05-07 19:08 40.68368 -74.17579 27 ft 10 kts 206°
2026-05-07 19:08 40.68302 -74.17621 27 ft 10 kts 206°
2026-05-07 19:08 40.68237 -74.17662 27 ft 10 kts 205°
2026-05-07 19:08 40.68171 -74.17704 27 ft 10 kts 205°
2026-05-07 19:09 40.68105 -74.17746 26 ft 10 kts 205°
2026-05-07 19:09 40.68040 -74.17787 27 ft 10 kts 206°
2026-05-07 19:09 40.67975 -74.17828 27 ft 10 kts 206°
2026-05-07 19:09 40.67909 -74.17871 27 ft 10 kts 206°
2026-05-07 19:10 40.67844 -74.17912 27 ft 10 kts 206°
2026-05-07 19:10 40.67779 -74.17953 27 ft 10 kts 206°
2026-05-07 19:10 40.67714 -74.17995 26 ft 10 kts 206°
2026-05-07 19:10 40.67648 -74.18036 27 ft 11 kts 199°
2026-05-07 19:11 40.67583 -74.18003 27 ft 11 kts 129°
2026-05-07 19:11 40.67640 -74.17885 27 ft 31 kts 27°
2026-05-07 19:11 40.68033 -74.17632 28 ft 97 kts 25°
2026-05-07 19:11 40.68793 -74.17149 29 ft 149 kts 24°
2026-05-07 19:12 40.69827 -74.16513 95 ft 182 kts 29°
2026-05-07 19:12 40.70938 -74.15674 541 ft 189 kts 24°
2026-05-07 19:12 40.72014 -74.14705 1111 ft 195 kts 43°
2026-05-07 19:12 40.72913 -74.13554 1779 ft 192 kts 42°
2026-05-07 19:13 40.73878 -74.12334 2406 ft 194 kts 40°
2026-05-07 19:13 40.74921 -74.11057 2528 ft 222 kts 40°
2026-05-07 19:13 40.76322 -74.10007 2473 ft 243 kts
2026-05-07 19:13 40.78000 -74.10314 2512 ft 246 kts 330°
2026-05-07 19:14 40.79224 -74.11816 2735 ft 247 kts 299°
2026-05-07 19:14 40.79725 -74.13954 3445 ft 251 kts 279°
2026-05-07 19:14 40.79950 -74.16248 4228 ft 253 kts 278°
2026-05-07 19:14 40.80160 -74.18589 4944 ft 261 kts 278°
2026-05-07 19:15 40.80366 -74.20939 5823 ft 257 kts 278°
2026-05-07 19:15 40.80752 -74.23236 6466 ft 258 kts 299°
2026-05-07 19:15 40.82005 -74.24884 7120 ft 262 kts 333°
2026-05-07 19:15 40.83814 -74.25313 7777 ft 275 kts
2026-05-07 19:16 40.85697 -74.24609 8369 ft 290 kts 20°
2026-05-07 19:16 40.87418 -74.23208 8978 ft 304 kts 34°
2026-05-07 19:16 40.88971 -74.21184 9527 ft 318 kts 42°
2026-05-07 19:16 40.90424 -74.18964 10065 ft 327 kts 44°
2026-05-07 19:17 40.91821 -74.16751 10434 ft 341 kts 45°
2026-05-07 19:17 40.93401 -74.14266 10601 ft 364 kts 45°
2026-05-07 19:17 40.95094 -74.11637 10778 ft 388 kts 45°
2026-05-07 19:17 40.96907 -74.08853 11018 ft 409 kts 45°
2026-05-07 19:18 40.98785 -74.05997 11518 ft 422 kts 45°
2026-05-07 19:18 41.00745 -74.03034 12188 ft 431 kts 45°
2026-05-07 19:18 41.02745 -74.00020 12923 ft 440 kts 45°
2026-05-07 19:18 41.04782 -73.96959 13639 ft 450 kts 45°
2026-05-07 19:19 41.06525 -73.94341 14193 ft 456 kts 45°
2026-05-07 19:19 41.08622 -73.91187 14998 ft 459 kts 45°
2026-05-07 19:19 41.10752 -73.87981 15799 ft 464 kts 45°
2026-05-07 19:19 41.12867 -73.84797 16528 ft 469 kts 45°
2026-05-07 19:20 41.15049 -73.81509 17246 ft 475 kts 45°
2026-05-07 19:20 41.17246 -73.78197 18000 ft 481 kts 45°
2026-05-07 19:20 41.19464 -73.74847 18630 ft 486 kts 45°
2026-05-07 19:20 41.21717 -73.71441 19212 ft 494 kts 45°
2026-05-07 19:21 41.23969 -73.68033 19747 ft 501 kts 45°
2026-05-07 19:21 41.26278 -73.64536 20324 ft 507 kts 45°
2026-05-07 19:21 41.28613 -73.60992 20883 ft 514 kts 45°
2026-05-07 19:21 41.30976 -73.57402 21457 ft 520 kts 45°
2026-05-07 19:22 41.33366 -73.53767 22038 ft 525 kts 45°
2026-05-07 19:22 41.35781 -73.50088 22557 ft 531 kts 45°
2026-05-07 19:22 41.38223 -73.46365 23098 ft 537 kts 45°
2026-05-07 19:22 41.40696 -73.42587 23579 ft 543 kts 45°
2026-05-07 19:23 41.43190 -73.38774 24011 ft 549 kts 45°
2026-05-07 19:23 41.45679 -73.34964 24443 ft 554 kts 45°
2026-05-07 19:23 41.48229 -73.31079 24855 ft 559 kts 44°
2026-05-07 19:23 41.50914 -73.27319 25269 ft 562 kts 40°
2026-05-07 19:24 41.53731 -73.23682 25676 ft 566 kts 39°
2026-05-07 19:24 41.56584 -73.20016 26056 ft 572 kts 39°
2026-05-07 19:24 41.59467 -73.16411 26372 ft 569 kts 32°
2026-05-07 19:24 41.62805 -73.13694 26624 ft 555 kts 13°
2026-05-07 19:25 41.66434 -73.12215 27046 ft 537 kts 359°
2026-05-07 19:25 41.70077 -73.11738 27502 ft 517 kts 346°
2026-05-07 19:25 41.73551 -73.12246 27817 ft 498 kts 336°
2026-05-07 19:25 41.77000 -73.12982 28087 ft 506 kts 337°
2026-05-07 19:26 41.80495 -73.13661 28520 ft 509 kts 338°
2026-05-07 19:26 41.83962 -73.14285 28941 ft 512 kts 339°
2026-05-07 19:26 41.87521 -73.14897 29318 ft 516 kts 339°
2026-05-07 19:26 41.91074 -73.15496 29634 ft 519 kts 339°
2026-05-07 19:27 41.94663 -73.16098 29972 ft 521 kts 339°
2026-05-07 19:27 41.98257 -73.16698 30417 ft 519 kts 339°
2026-05-07 19:27 42.01836 -73.17295 30893 ft 516 kts 339°
2026-05-07 19:27 42.05391 -73.17895 31311 ft 515 kts 339°
2026-05-07 19:28 42.08935 -73.18500 31664 ft 514 kts 339°
2026-05-07 19:28 42.12491 -73.19113 32019 ft 514 kts 339°
2026-05-07 19:28 42.15989 -73.19716 32382 ft 514 kts 339°
2026-05-07 19:28 42.19534 -73.20327 32760 ft 513 kts 339°
2026-05-07 19:29 42.23049 -73.20931 33159 ft 510 kts 339°
2026-05-07 19:29 42.26565 -73.21536 33545 ft 509 kts 339°
2026-05-07 19:29 42.30089 -73.22146 33791 ft 511 kts 339°
2026-05-07 19:29 42.33613 -73.22757 34058 ft 511 kts 339°
2026-05-07 19:30 42.37142 -73.23365 34374 ft 510 kts 340°
2026-05-07 19:30 42.40660 -73.23971 34693 ft 508 kts 340°
2026-05-07 19:30 42.44172 -73.24583 34802 ft 512 kts 340°
2026-05-07 19:30 42.47707 -73.25200 34856 ft 514 kts 340°
2026-05-07 19:31 42.54919 -73.24942 34859 ft 551 kts
2026-05-07 19:31 42.58472 -73.22770 34866 ft 573 kts 27°
2026-05-07 19:31 42.61529 -73.19224 34876 ft 585 kts 46°
2026-05-07 19:32 42.63831 -73.14659 34876 ft 586 kts 59°
2026-05-07 19:32 42.65805 -73.09808 34882 ft 589 kts 61°
2026-05-07 19:32 42.69611 -72.99980 34881 ft 593 kts 61°
2026-05-07 19:33 42.73529 -72.90150 34876 ft 595 kts 60°
2026-05-07 19:33 42.77581 -72.80358 34851 ft 594 kts 59°
2026-05-07 19:34 42.81617 -72.70701 34846 ft 590 kts 59°
2026-05-07 19:34 42.85655 -72.60977 34831 ft 587 kts 59°
2026-05-07 19:35 42.89645 -72.51294 34835 ft 586 kts 59°
2026-05-07 19:35 42.93598 -72.41656 34828 ft 586 kts 60°
2026-05-07 19:36 42.97579 -72.31920 34833 ft 588 kts 60°
2026-05-07 19:36 43.01537 -72.22211 34829 ft 590 kts 60°
2026-05-07 19:37 43.05530 -72.12383 34831 ft 591 kts 60°
2026-05-07 19:37 43.09488 -72.02608 34835 ft 592 kts 60°
2026-05-07 19:38 43.13473 -71.92733 34825 ft 592 kts 60°
2026-05-07 19:38 43.17437 -71.82876 34810 ft 592 kts 60°
2026-05-07 19:39 43.21404 -71.72978 34801 ft 592 kts 60°
2026-05-07 19:39 43.25356 -71.63083 34807 ft 592 kts 60°
2026-05-07 19:40 43.29273 -71.53242 34806 ft 592 kts 60°
2026-05-07 19:40 43.33211 -71.43315 34805 ft 592 kts 60°
2026-05-07 19:41 43.37131 -71.33398 34802 ft 592 kts 61°
2026-05-07 19:41 43.41047 -71.23457 34792 ft 592 kts 61°
2026-05-07 19:42 43.44932 -71.13558 34785 ft 592 kts 61°
2026-05-07 19:42 43.48833 -71.03584 34774 ft 592 kts 61°
2026-05-07 19:43 43.52719 -70.93615 34791 ft 592 kts 61°
2026-05-07 19:43 43.56600 -70.83624 34785 ft 592 kts 61°
2026-05-07 19:44 43.60451 -70.73674 34782 ft 592 kts 62°
2026-05-07 19:44 43.64315 -70.63655 34759 ft 592 kts 62°
2026-05-07 19:45 43.68170 -70.53626 34763 ft 592 kts 62°
2026-05-07 19:45 43.72024 -70.43561 34761 ft 592 kts 62°
2026-05-07 19:46 43.75843 -70.33552 34760 ft 593 kts 62°
2026-05-07 19:46 43.79677 -70.23471 34757 ft 593 kts 62°
2026-05-07 19:47 43.83513 -70.13344 34750 ft 594 kts 62°
2026-05-07 19:47 43.87341 -70.03203 34747 ft 594 kts 62°
2026-05-07 19:48 43.91133 -69.93119 34751 ft 594 kts 62°
2026-05-07 19:48 43.94935 -69.82976 34756 ft 594 kts 62°
2026-05-07 19:49 43.98738 -69.72790 34752 ft 594 kts 62°
2026-05-07 19:49 44.02489 -69.62707 34746 ft 594 kts 62°
2026-05-07 19:50 44.06239 -69.52591 34748 ft 593 kts 63°
2026-05-07 19:50 44.10011 -69.42379 34738 ft 593 kts 63°
2026-05-07 19:51 44.13767 -69.32170 34733 ft 593 kts 63°
2026-05-07 19:51 44.17511 -69.21956 34737 ft 592 kts 63°
2026-05-07 19:52 44.21228 -69.11781 34736 ft 592 kts 63°
2026-05-07 19:52 44.24922 -69.01629 34721 ft 591 kts 63°
2026-05-07 19:53 44.28634 -68.91392 34730 ft 592 kts 63°
2026-05-07 19:53 44.32336 -68.81143 34724 ft 592 kts 63°
2026-05-07 19:54 44.36036 -68.70860 34718 ft 593 kts 63°
2026-05-07 19:54 44.39716 -68.60598 34727 ft 594 kts 63°
2026-05-07 19:55 44.43411 -68.50250 34731 ft 595 kts 63°
2026-05-07 19:55 44.47092 -68.39907 34736 ft 595 kts 64°
2026-05-07 19:56 44.50777 -68.29510 34732 ft 596 kts 64°
2026-05-07 19:56 44.54427 -68.19172 34727 ft 596 kts 64°
2026-05-07 19:57 44.58090 -68.08758 34710 ft 596 kts 64°
2026-05-07 19:57 44.61748 -67.98321 34712 ft 596 kts 64°
2026-05-07 19:58 44.65394 -67.87874 34693 ft 596 kts 64°
2026-05-07 19:58 44.69007 -67.77483 34693 ft 595 kts 64°
2026-05-07 19:59 44.72626 -67.67035 34697 ft 595 kts 64°
2026-05-07 19:59 44.76232 -67.56580 34692 ft 595 kts 64°
2026-05-07 20:00 44.79836 -67.46094 34686 ft 594 kts 64°
2026-05-07 20:00 44.83390 -67.35710 34688 ft 594 kts 64°
2026-05-07 20:01 44.86969 -67.25217 34689 ft 594 kts 64°
2026-05-07 20:01 44.90840 -67.14971 34698 ft 593 kts 56°
2026-05-07 20:02 44.95736 -67.05657 34698 ft 589 kts 48°
2026-05-07 20:02 45.00933 -66.96749 34690 ft 589 kts 47°
2026-05-07 20:03 45.06095 -66.87832 34686 ft 589 kts 48°
2026-05-07 20:03 45.11237 -66.78795 34676 ft 589 kts 49°
2026-05-07 20:04 45.16332 -66.69758 34684 ft 589 kts 49°
2026-05-07 20:04 45.21438 -66.60675 34680 ft 588 kts 49°
2026-05-07 20:05 45.26490 -66.51671 34676 ft 587 kts 49°
2026-05-07 20:05 45.31554 -66.42625 34669 ft 586 kts 49°
2026-05-07 20:06 45.36614 -66.33557 34671 ft 585 kts 49°
2026-05-07 20:06 45.41658 -66.24487 34672 ft 584 kts 49°
2026-05-07 20:07 45.46651 -66.15478 34674 ft 583 kts 49°
2026-05-07 20:07 45.51657 -66.06419 34672 ft 582 kts 50°
2026-05-07 20:08 45.56656 -65.97343 34666 ft 581 kts 50°
2026-05-07 20:08 45.61643 -65.88258 34664 ft 580 kts 50°
2026-05-07 20:09 45.66583 -65.79230 34654 ft 580 kts 50°
2026-05-07 20:10 45.74012 -65.65601 34655 ft 580 kts 50°
2026-05-07 20:10 45.78953 -65.56498 34664 ft 579 kts 50°
2026-05-07 20:11 45.83896 -65.47363 34662 ft 579 kts 50°
2026-05-07 20:11 45.88780 -65.38307 34644 ft 579 kts 50°
2026-05-07 20:12 45.93698 -65.29159 34650 ft 578 kts 51°
2026-05-07 20:12 45.98598 -65.20014 34646 ft 577 kts 51°
2026-05-07 20:13 46.03462 -65.10906 34650 ft 575 kts 51°
2026-05-07 20:13 46.08334 -65.01754 34643 ft 574 kts 51°
2026-05-07 20:14 46.13179 -64.92625 34652 ft 574 kts 51°
2026-05-07 20:14 46.17988 -64.83532 34645 ft 573 kts 51°
2026-05-07 20:15 46.22788 -64.74429 34641 ft 572 kts 52°
2026-05-07 20:15 46.27590 -64.65288 34642 ft 571 kts 52°
2026-05-07 20:16 46.32386 -64.56131 34640 ft 570 kts 52°
2026-05-07 20:16 46.37114 -64.47076 34641 ft 569 kts 52°
2026-05-07 20:17 46.41871 -64.37934 34639 ft 568 kts 52°
2026-05-07 20:17 46.46620 -64.28778 34638 ft 568 kts 52°
2026-05-07 20:18 46.51355 -64.19618 34638 ft 567 kts 52°
2026-05-07 20:18 46.56047 -64.10512 34640 ft 567 kts 53°
2026-05-07 20:19 46.60766 -64.01324 34642 ft 567 kts 53°
2026-05-07 20:19 46.65479 -63.92116 34639 ft 567 kts 53°
2026-05-07 20:20 46.70173 -63.82916 34646 ft 567 kts 53°
2026-05-07 20:20 46.74837 -63.73744 34639 ft 567 kts 53°
2026-05-07 20:21 46.79516 -63.64510 34638 ft 566 kts 53°
2026-05-07 20:21 46.84191 -63.55256 34643 ft 566 kts 54°
2026-05-07 20:22 46.88845 -63.46012 34648 ft 565 kts 54°
2026-05-07 20:22 46.93489 -63.36757 34649 ft 564 kts 54°
2026-05-07 20:23 46.98091 -63.27555 34651 ft 563 kts 54°
2026-05-07 20:23 47.02701 -63.18306 34654 ft 563 kts 54°
2026-05-07 20:24 47.07310 -63.09029 34652 ft 562 kts 54°
2026-05-07 20:24 47.11871 -62.99818 34651 ft 561 kts 55°
2026-05-07 20:25 47.16448 -62.90541 34652 ft 560 kts 55°
2026-05-07 20:25 47.21007 -62.81273 34663 ft 560 kts 55°
2026-05-07 20:26 47.25559 -62.71985 34656 ft 560 kts 55°
2026-05-07 20:26 47.30112 -62.62666 34645 ft 560 kts 56°
2026-05-07 20:27 47.34599 -62.53450 34654 ft 559 kts 56°
2026-05-07 20:27 47.39120 -62.44133 34654 ft 558 kts 56°
2026-05-07 20:28 47.43622 -62.34824 34651 ft 557 kts 56°
2026-05-07 20:28 47.48114 -62.25504 34644 ft 556 kts 56°
2026-05-07 20:29 47.52550 -62.16269 34648 ft 555 kts 56°
2026-05-07 20:29 47.57009 -62.06953 34648 ft 554 kts 57°
2026-05-07 20:30 47.61456 -61.97633 34640 ft 554 kts 57°
2026-05-07 20:30 47.65884 -61.88321 34640 ft 553 kts 57°
2026-05-07 20:31 47.70275 -61.79053 34635 ft 552 kts 57°
2026-05-07 20:31 47.74678 -61.69731 34638 ft 551 kts 58°
2026-05-07 20:32 47.79073 -61.60393 34636 ft 551 kts 58°
2026-05-07 20:32 47.83446 -61.51070 34636 ft 550 kts 58°
2026-05-07 20:33 47.87824 -61.41706 34647 ft 550 kts 58°
2026-05-07 20:33 47.92158 -61.32402 34649 ft 550 kts 58°
2026-05-07 20:34 47.96497 -61.23056 34651 ft 549 kts 58°
2026-05-07 20:34 48.00840 -61.13669 34640 ft 549 kts 59°
2026-05-07 20:35 48.05167 -61.04285 34650 ft 548 kts 59°
2026-05-07 20:35 48.09449 -60.94967 34652 ft 547 kts 59°
2026-05-07 20:36 48.13741 -60.85594 34645 ft 546 kts 59°
2026-05-07 20:36 48.18018 -60.76222 34649 ft 545 kts 59°
2026-05-07 20:37 48.22250 -60.66917 34654 ft 544 kts 59°
2026-05-07 20:37 48.26472 -60.57601 34656 ft 543 kts 60°
2026-05-07 20:38 48.30701 -60.48239 34662 ft 543 kts 60°
2026-05-07 20:38 48.34928 -60.38846 34668 ft 543 kts 60°
2026-05-07 20:39 48.39152 -60.29430 34678 ft 544 kts 60°
2026-05-07 20:39 48.43347 -60.20044 34661 ft 545 kts 60°
2026-05-07 20:40 48.47573 -60.10556 34668 ft 544 kts 60°
2026-05-07 20:40 48.51770 -60.01102 34667 ft 544 kts 60°
2026-05-07 20:41 48.55975 -59.91597 34682 ft 545 kts 60°
2026-05-07 20:41 48.60147 -59.82130 34673 ft 545 kts 60°
2026-05-07 20:42 48.64348 -59.72565 34680 ft 546 kts 60°
2026-05-07 20:42 48.68535 -59.62998 34674 ft 547 kts 60°
2026-05-07 20:43 48.72729 -59.53381 34670 ft 547 kts 60°
2026-05-07 20:43 48.76915 -59.43750 34674 ft 546 kts 60°
2026-05-07 20:44 48.81055 -59.34189 34677 ft 545 kts 60°
2026-05-07 20:44 48.85201 -59.24580 34677 ft 544 kts 60°
2026-05-07 20:45 48.89327 -59.14984 34681 ft 542 kts 60°
2026-05-07 20:45 48.93437 -59.05388 34673 ft 540 kts 60°
2026-05-07 20:46 48.97491 -58.95891 34680 ft 538 kts 61°
2026-05-07 20:46 49.01560 -58.86324 34686 ft 537 kts 61°
2026-05-07 20:47 49.05600 -58.76792 34688 ft 536 kts 61°
2026-05-07 20:47 49.09607 -58.67301 34691 ft 535 kts 61°
2026-05-07 20:48 49.13627 -58.57749 34694 ft 535 kts 61°
2026-05-07 20:48 49.17640 -58.48178 34697 ft 535 kts 61°
2026-05-07 20:49 49.21639 -58.38605 34706 ft 535 kts 62°
2026-05-07 20:49 49.25645 -58.28981 34713 ft 536 kts 62°
2026-05-07 20:50 49.29615 -58.19411 34724 ft 537 kts 62°
2026-05-07 20:50 49.33600 -58.09768 34720 ft 537 kts 62°
2026-05-07 20:51 49.37598 -58.00058 34735 ft 538 kts 62°
2026-05-07 20:51 49.41557 -57.90412 34729 ft 538 kts 62°
2026-05-07 20:52 49.45536 -57.80677 34745 ft 538 kts 62°
2026-05-07 20:52 49.49500 -57.70942 34756 ft 538 kts 62°
2026-05-07 20:53 49.53460 -57.61184 34756 ft 538 kts 62°
2026-05-07 20:53 49.57414 -57.51406 34776 ft 538 kts 62°
2026-05-07 20:54 49.61338 -57.41666 34789 ft 538 kts 62°
2026-05-07 20:54 49.65274 -57.31859 34810 ft 537 kts 62°
2026-05-07 20:55 49.68533 -57.23708 34807 ft 537 kts 62°
2026-05-07 20:55 49.72446 -57.13890 34807 ft 537 kts 62°
2026-05-07 20:56 49.76991 -57.02440 34808 ft 537 kts 62°
2026-05-07 20:56 49.80890 -56.92581 34809 ft 537 kts 62°
2026-05-07 20:57 49.84123 -56.84375 34813 ft 537 kts 63°
2026-05-07 20:57 49.87995 -56.74513 34819 ft 537 kts 62°
2026-05-07 20:58 49.91870 -56.64606 34818 ft 537 kts 63°
2026-05-07 20:58 49.95718 -56.54731 34821 ft 538 kts 63°
2026-05-07 20:59 49.99585 -56.44771 34822 ft 539 kts 63°
2026-05-07 20:59 50.03451 -56.34773 34824 ft 540 kts 63°
2026-05-07 21:00 50.07307 -56.24762 34831 ft 541 kts 63°
2026-05-07 21:00 50.11168 -56.14701 34826 ft 542 kts 63°
2026-05-07 21:01 50.15008 -56.04659 34824 ft 543 kts 63°
2026-05-07 21:01 50.18868 -55.94524 34838 ft 544 kts 63°
2026-05-07 21:02 50.22722 -55.84365 34838 ft 545 kts 63°
2026-05-07 21:02 50.26570 -55.74180 34844 ft 546 kts 63°
2026-05-07 21:03 50.30399 -55.64007 34845 ft 545 kts 63°
2026-05-07 21:03 50.34233 -55.53781 34846 ft 545 kts 63°
2026-05-07 21:04 50.38052 -55.43556 34850 ft 544 kts 63°
2026-05-07 21:04 50.41857 -55.33325 34849 ft 543 kts 63°
2026-05-07 21:05 50.45623 -55.23160 34848 ft 543 kts 63°
2026-05-07 21:05 50.49397 -55.12930 34852 ft 542 kts 63°
2026-05-07 21:06 50.53170 -55.02665 34857 ft 542 kts 63°
2026-05-07 21:06 50.56940 -54.92367 34855 ft 543 kts 63°
2026-05-07 21:07 50.60695 -54.82067 34861 ft 543 kts 63°
2026-05-07 21:07 50.64423 -54.71800 34868 ft 544 kts 63°
2026-05-07 21:08 50.68174 -54.61429 34871 ft 545 kts 63°
2026-05-07 21:08 50.71923 -54.51021 34877 ft 546 kts 63°
2026-05-07 21:09 50.75669 -54.40581 34880 ft 547 kts 63°
2026-05-07 21:09 50.79375 -54.30207 34883 ft 547 kts 62°
2026-05-07 21:10 50.83103 -54.19731 34899 ft 546 kts 62°
2026-05-07 21:10 50.86817 -54.09250 34897 ft 546 kts 62°
2026-05-07 21:11 50.90523 -53.98751 34904 ft 545 kts 63°
2026-05-07 21:11 50.96017 -53.83101 34905 ft 544 kts 63°
2026-05-07 21:12 50.99687 -53.72595 34913 ft 544 kts 63°
2026-05-07 21:12 51.03338 -53.62098 34918 ft 543 kts 63°
2026-05-07 21:13 51.06976 -53.51595 34934 ft 542 kts 62°
2026-05-07 21:13 51.10575 -53.41161 34938 ft 541 kts 62°
2026-05-07 21:14 51.14180 -53.30667 34944 ft 540 kts 62°
2026-05-07 21:14 51.17663 -53.20087 34943 ft 539 kts 66°
2026-05-07 21:15 51.20674 -53.09206 34970 ft 542 kts 68°
2026-05-07 21:15 51.23649 -52.98120 34964 ft 544 kts 68°
2026-05-07 21:16 51.26638 -52.87043 34970 ft 544 kts 68°
2026-05-07 21:16 51.29641 -52.75969 34976 ft 543 kts 68°
2026-05-07 21:17 51.32632 -52.64916 34981 ft 541 kts 68°
2026-05-07 21:17 51.35585 -52.53943 34986 ft 540 kts 69°
2026-05-07 21:18 51.38533 -52.42926 34995 ft 538 kts 69°
2026-05-07 21:18 51.41468 -52.31904 35002 ft 537 kts 69°
2026-05-07 21:19 51.44385 -52.20894 35003 ft 536 kts 69°
2026-05-07 21:19 51.47281 -52.09910 35009 ft 536 kts 70°
2026-05-07 21:20 51.50152 -51.98971 35020 ft 535 kts 70°
2026-05-07 21:20 51.53033 -51.87940 35023 ft 535 kts 70°
2026-05-07 21:21 51.55901 -51.76908 35029 ft 535 kts 70°
2026-05-07 21:21 51.58733 -51.65957 35031 ft 536 kts 70°
2026-05-07 21:22 51.61582 -51.54891 35036 ft 536 kts 70°
2026-05-07 21:22 51.64420 -51.43812 35043 ft 536 kts 70°
2026-05-07 21:23 51.67244 -51.32730 35046 ft 536 kts 70°
2026-05-07 21:23 51.70062 -51.21620 35056 ft 535 kts 70°
2026-05-07 21:24 51.72849 -51.10578 35058 ft 535 kts 70°
2026-05-07 21:24 51.75642 -50.99455 35065 ft 535 kts 71°
2026-05-07 21:25 51.78418 -50.88345 35066 ft 534 kts 71°
2026-05-07 21:25 51.81189 -50.77201 35073 ft 534 kts 71°
2026-05-07 21:26 51.83924 -50.66146 35076 ft 533 kts 71°
2026-05-07 21:26 51.86656 -50.55045 35084 ft 533 kts 71°
2026-05-07 21:27 51.89385 -50.43898 35085 ft 532 kts 71°
2026-05-07 21:27 51.92099 -50.32760 35095 ft 532 kts 71°
2026-05-07 21:28 51.94788 -50.21665 35093 ft 532 kts 71°
2026-05-07 21:28 51.97477 -50.10517 35099 ft 532 kts 71°
2026-05-07 21:29 52.00162 -49.99336 35102 ft 532 kts 71°
2026-05-07 21:29 52.02931 -49.88175 35104 ft 533 kts 70°
2026-05-07 21:30 52.05746 -49.77074 35109 ft 533 kts 70°
2026-05-07 21:30 52.08555 -49.65921 35109 ft 533 kts 70°
2026-05-07 21:31 52.11320 -49.54820 35111 ft 533 kts 70°
2026-05-07 21:31 52.14091 -49.43604 35123 ft 534 kts 70°
2026-05-07 21:32 52.16842 -49.32410 35122 ft 534 kts 70°
2026-05-07 21:32 52.19593 -49.21167 35117 ft 534 kts 70°
2026-05-07 21:33 52.22309 -49.10011 35120 ft 534 kts 70°
2026-05-07 21:33 52.25036 -48.98758 35122 ft 534 kts 70°
2026-05-07 21:34 52.27749 -48.87499 35124 ft 533 kts 70°
2026-05-07 21:34 52.30455 -48.76212 35127 ft 533 kts 70°
2026-05-07 21:35 52.33130 -48.64995 35131 ft 533 kts 70°
2026-05-07 21:35 52.35805 -48.53720 35134 ft 532 kts 70°
2026-05-07 21:36 52.38471 -48.42427 35136 ft 532 kts 70°
2026-05-07 21:36 52.41125 -48.31123 35137 ft 532 kts 70°
2026-05-07 21:37 52.43760 -48.19841 35136 ft 531 kts 71°
2026-05-07 21:37 52.46371 -48.08603 35140 ft 531 kts 70°
2026-05-07 21:38 52.48985 -47.97291 35139 ft 530 kts 71°
2026-05-07 21:38 52.51589 -47.85964 35144 ft 530 kts 71°
2026-05-07 21:39 52.54175 -47.74653 35147 ft 530 kts 71°
2026-05-07 21:39 52.56737 -47.63388 35150 ft 530 kts 71°
2026-05-07 21:40 52.59306 -47.52031 35152 ft 530 kts 71°
2026-05-07 21:40 52.61859 -47.40682 35155 ft 530 kts 71°
2026-05-07 21:41 52.64411 -47.29279 35158 ft 530 kts 71°
2026-05-07 21:41 52.66947 -47.17883 35161 ft 530 kts 71°
2026-05-07 21:42 52.69453 -47.06563 35164 ft 530 kts 71°
2026-05-07 21:42 52.71962 -46.95163 35163 ft 529 kts 71°
2026-05-07 21:43 52.74461 -46.83748 35166 ft 529 kts 71°
2026-05-07 21:43 52.76949 -46.72323 35168 ft 529 kts 71°
2026-05-07 21:44 52.79406 -46.60974 35169 ft 529 kts 71°
2026-05-07 21:44 52.81869 -46.49534 35170 ft 528 kts 71°
2026-05-07 21:45 52.84320 -46.38086 35174 ft 528 kts 71°
2026-05-07 21:45 52.86757 -46.26637 35176 ft 528 kts 71°
2026-05-07 21:46 52.89180 -46.15193 35177 ft 528 kts 71°
2026-05-07 21:46 52.91580 -46.03792 35184 ft 527 kts 71°
2026-05-07 21:47 52.93983 -45.92310 35179 ft 527 kts 71°
2026-05-07 21:47 52.96368 -45.80852 35178 ft 527 kts 71°
2026-05-07 21:48 52.98732 -45.69427 35183 ft 527 kts 71°
2026-05-07 21:48 53.01099 -45.57925 35189 ft 527 kts 71°
2026-05-07 21:49 53.03454 -45.46412 35193 ft 526 kts 71°
2026-05-07 21:49 53.05791 -45.34919 35195 ft 526 kts 71°
2026-05-07 21:50 53.08107 -45.23462 35194 ft 526 kts 71°
2026-05-07 21:50 53.10427 -45.11924 35197 ft 526 kts 71°
2026-05-07 21:51 53.12703 -45.00535 35200 ft 525 kts 71°
2026-05-07 21:51 53.15021 -44.88865 35197 ft 525 kts 71°
2026-05-07 21:52 53.17306 -44.77292 35211 ft 525 kts 71°
2026-05-07 21:52 53.19564 -44.65789 35202 ft 526 kts 71°
2026-05-07 21:53 53.21822 -44.54215 35210 ft 526 kts 71°
2026-05-07 21:53 53.24075 -44.42599 35211 ft 526 kts 71°
2026-05-07 21:54 53.26320 -44.30956 35215 ft 527 kts 71°
2026-05-07 21:54 53.28539 -44.19373 35222 ft 527 kts 71°
2026-05-07 21:55 53.30757 -44.07722 35229 ft 528 kts 71°
2026-05-07 21:55 53.32970 -43.96033 35226 ft 528 kts 71°
2026-05-07 21:56 53.35173 -43.84317 35223 ft 528 kts 71°
2026-05-07 21:56 53.37363 -43.72598 35233 ft 528 kts 71°
2026-05-07 21:57 53.39525 -43.60958 35241 ft 527 kts 71°
2026-05-07 21:57 53.41694 -43.49210 35233 ft 527 kts 71°
2026-05-07 21:58 53.43846 -43.37474 35239 ft 527 kts 71°
2026-05-07 21:58 53.45984 -43.25742 35238 ft 527 kts 71°
2026-05-07 21:59 53.48117 -43.13966 35245 ft 527 kts 71°
2026-05-07 21:59 53.50220 -43.02276 35249 ft 527 kts 71°
2026-05-07 22:00 53.52324 -42.90504 35255 ft 527 kts 71°
2026-05-07 22:00 53.54420 -42.78702 35250 ft 527 kts 71°
2026-05-07 22:01 53.56505 -42.66878 35255 ft 528 kts 71°
2026-05-07 22:01 53.58566 -42.55126 35272 ft 528 kts 71°
2026-05-07 22:02 53.60626 -42.43298 35266 ft 528 kts 71°
2026-05-07 22:02 53.62679 -42.31427 35269 ft 527 kts 71°
2026-05-07 22:03 53.64718 -42.19560 35268 ft 527 kts 71°
2026-05-07 22:03 53.66735 -42.07741 35265 ft 526 kts 71°
2026-05-07 22:04 53.68730 -41.95972 35270 ft 525 kts 71°
2026-05-07 22:04 53.70721 -41.84145 35284 ft 524 kts 70°
2026-05-07 22:05 53.72699 -41.72320 35268 ft 523 kts 70°
2026-05-07 22:05 53.74645 -41.60601 35281 ft 522 kts 70°
2026-05-07 22:06 53.76592 -41.48800 35287 ft 521 kts 70°
2026-05-07 22:06 53.78526 -41.36997 35290 ft 521 kts 70°
2026-05-07 22:07 53.80444 -41.25209 35293 ft 520 kts 70°
2026-05-07 22:07 53.82350 -41.13416 35300 ft 520 kts 70°
2026-05-07 22:08 53.84231 -41.01690 35301 ft 519 kts 70°
2026-05-07 22:08 53.86113 -40.89875 35302 ft 519 kts 70°
2026-05-07 22:09 53.87977 -40.78097 35311 ft 518 kts 70°
2026-05-07 22:09 53.89833 -40.66279 35315 ft 518 kts 70°
2026-05-07 22:10 53.91662 -40.54554 35311 ft 518 kts 70°
2026-05-07 22:10 53.93490 -40.42750 35316 ft 517 kts 71°
2026-05-07 22:11 53.95305 -40.30944 35318 ft 517 kts 71°
2026-05-07 22:11 53.97107 -40.19137 35327 ft 517 kts 71°
2026-05-07 22:12 53.98889 -40.07384 35329 ft 517 kts 71°
2026-05-07 22:12 54.00661 -39.95556 35335 ft 517 kts 71°
2026-05-07 22:13 54.02366 -39.83705 35337 ft 516 kts 71°
2026-05-07 22:13 54.04040 -39.71853 35341 ft 516 kts 71°
2026-05-07 22:14 54.05712 -39.59977 35348 ft 515 kts 71°
2026-05-07 22:14 54.07363 -39.48203 35347 ft 515 kts 71°
2026-05-07 22:15 54.09015 -39.36350 35342 ft 514 kts 71°
2026-05-07 22:15 54.10648 -39.24534 35364 ft 513 kts 71°
2026-05-07 22:16 54.12270 -39.12700 35358 ft 513 kts 71°
2026-05-07 22:16 54.13868 -39.00950 35363 ft 512 kts 71°
2026-05-07 22:17 54.15464 -38.89116 35362 ft 512 kts 71°
2026-05-07 22:17 54.17047 -38.77290 35368 ft 511 kts 71°
2026-05-07 22:18 54.19385 -38.59638 35370 ft 510 kts 71°
2026-05-07 22:19 54.20934 -38.47828 35373 ft 510 kts 71°
2026-05-07 22:19 54.22470 -38.36017 35373 ft 509 kts 71°
2026-05-07 22:20 54.23993 -38.24210 35385 ft 508 kts 71°
2026-05-07 22:20 54.25499 -38.12430 35379 ft 508 kts 71°
2026-05-07 22:21 54.26986 -38.00709 35387 ft 507 kts 71°
2026-05-07 22:21 54.28468 -37.88923 35383 ft 506 kts 72°
2026-05-07 22:22 54.29936 -37.77155 35389 ft 506 kts 72°
2026-05-07 22:22 54.31390 -37.65395 35384 ft 505 kts 72°
2026-05-07 22:23 54.32834 -37.53620 35390 ft 505 kts 72°
2026-05-07 22:23 54.34266 -37.41852 35763 ft 508 kts 72°
2026-05-07 22:23 54.34978 -37.35949 36136 ft 506 kts 72°
2026-05-07 22:24 54.35686 -37.30048 36431 ft 505 kts 72°
2026-05-07 22:24 54.37099 -37.18226 36391 ft 506 kts 72°
2026-05-07 22:25 54.38490 -37.06454 36388 ft 502 kts 72°
2026-05-07 22:25 54.39854 -36.94817 36387 ft 500 kts 72°
2026-05-07 22:26 54.41212 -36.83148 36397 ft 499 kts 72°
2026-05-07 22:26 54.42560 -36.71464 36390 ft 499 kts 72°
2026-05-07 22:27 54.43890 -36.59826 36405 ft 500 kts 72°
2026-05-07 22:27 54.45218 -36.48090 36400 ft 501 kts 72°
2026-05-07 22:28 54.46537 -36.36327 36405 ft 502 kts 73°
2026-05-07 22:28 54.47845 -36.24552 36402 ft 502 kts 73°
2026-05-07 22:29 54.49136 -36.12819 36406 ft 502 kts 73°
2026-05-07 22:29 54.50422 -36.01015 36399 ft 502 kts 73°
2026-05-07 22:30 54.51693 -35.89230 36399 ft 501 kts 73°
2026-05-07 22:30 54.52951 -35.77468 36402 ft 500 kts 73°
2026-05-07 22:31 54.54198 -35.65687 36393 ft 499 kts 73°
2026-05-07 22:31 54.55429 -35.53941 36398 ft 498 kts 73°
2026-05-07 22:32 54.56640 -35.42287 36403 ft 497 kts 73°
2026-05-07 22:32 54.57847 -35.30549 36396 ft 497 kts 73°
2026-05-07 22:33 54.59038 -35.18841 36406 ft 496 kts 73°
2026-05-07 22:33 54.60219 -35.07117 36403 ft 496 kts 73°
2026-05-07 22:34 54.61381 -34.95470 36406 ft 496 kts 74°
2026-05-07 22:34 54.62539 -34.83740 36403 ft 496 kts 74°
2026-05-07 22:35 54.63681 -34.72048 36408 ft 495 kts 74°
2026-05-07 22:35 54.64815 -34.60314 36405 ft 495 kts 74°
2026-05-07 22:36 54.65928 -34.48673 36408 ft 495 kts 74°
2026-05-07 22:36 54.67038 -34.36948 36405 ft 494 kts 74°
2026-05-07 22:36 54.67589 -34.31075 36238 ft 497 kts 72°
2026-05-07 22:37 54.68145 -34.25147 36349 ft 501 kts 72°
2026-05-07 22:37 54.69260 -34.13175 36409 ft 510 kts 72°
2026-05-07 22:38 54.70369 -34.01068 36413 ft 514 kts 73°
2026-05-07 22:38 54.71466 -33.88878 36411 ft 513 kts 73°
2026-05-07 22:39 54.72548 -33.76722 36409 ft 511 kts 73°
2026-05-07 22:39 54.73620 -33.64591 36405 ft 509 kts 73°
2026-05-07 22:40 54.74677 -33.52490 36412 ft 508 kts 73°
2026-05-07 22:40 54.75714 -33.40485 36411 ft 507 kts 73°
2026-05-07 22:41 54.76741 -33.28442 36399 ft 506 kts 73°
2026-05-07 22:41 54.77757 -33.16392 36402 ft 505 kts 73°
2026-05-07 22:42 54.78758 -33.04355 36410 ft 505 kts 73°
2026-05-07 22:42 54.79740 -32.92418 36406 ft 505 kts 73°
2026-05-07 22:43 54.80719 -32.80363 36408 ft 505 kts 73°
2026-05-07 22:43 54.81687 -32.68290 36409 ft 506 kts 73°
2026-05-07 22:44 54.82643 -32.56199 36405 ft 506 kts 73°
2026-05-07 22:44 54.83581 -32.44178 36406 ft 506 kts 73°
2026-05-07 22:45 54.84513 -32.32086 36406 ft 507 kts 73°
2026-05-07 22:45 54.85433 -32.19978 36404 ft 506 kts 73°
2026-05-07 22:46 54.86341 -32.07857 36401 ft 506 kts 74°
2026-05-07 22:46 54.87237 -31.95750 36399 ft 505 kts 74°
2026-05-07 22:47 54.88111 -31.83753 36397 ft 505 kts 74°
2026-05-07 22:47 54.88981 -31.71667 36401 ft 504 kts 74°
2026-05-07 22:48 54.89836 -31.59603 36404 ft 503 kts 74°
2026-05-07 22:48 54.90679 -31.47543 36396 ft 503 kts 74°
2026-05-07 22:49 54.91504 -31.35564 36388 ft 502 kts 75°
2026-05-07 22:49 54.92320 -31.23537 36395 ft 502 kts 75°
2026-05-07 22:50 54.93125 -31.11496 36397 ft 502 kts 75°
2026-05-07 22:50 54.93914 -30.99511 36397 ft 502 kts 75°
2026-05-07 22:51 54.94695 -30.87462 36393 ft 502 kts 75°
2026-05-07 22:51 54.95464 -30.75411 36387 ft 502 kts 75°
2026-05-07 22:52 54.96222 -30.63338 36389 ft 502 kts 75°
2026-05-07 22:52 54.96969 -30.51255 36394 ft 502 kts 75°
2026-05-07 22:53 54.97699 -30.39241 36390 ft 502 kts 76°
2026-05-07 22:53 54.98419 -30.27176 36377 ft 502 kts 76°
2026-05-07 22:54 54.99131 -30.15074 36382 ft 502 kts 76°
2026-05-07 22:54 54.99831 -30.02983 36382 ft 502 kts 76°
2026-05-07 22:55 55.00439 -29.90880 36381 ft 503 kts 78°
2026-05-07 22:55 55.00895 -29.78807 36372 ft 503 kts 78°
2026-05-07 22:56 55.01332 -29.66644 36374 ft 503 kts 78°
2026-05-07 22:56 55.01779 -29.54489 36372 ft 502 kts 78°
2026-05-07 22:57 55.02223 -29.42415 36369 ft 501 kts 78°
2026-05-07 22:57 55.02657 -29.30375 36371 ft 501 kts 78°
2026-05-07 22:58 55.03080 -29.18258 36367 ft 501 kts 79°
2026-05-07 22:58 55.03490 -29.06173 36363 ft 500 kts 79°
2026-05-07 22:59 55.03888 -28.94069 36358 ft 500 kts 79°
2026-05-07 22:59 55.04271 -28.82049 36353 ft 500 kts 79°
2026-05-07 23:00 55.04644 -28.69952 36353 ft 500 kts 79°
2026-05-07 23:00 55.05004 -28.57871 36344 ft 499 kts 80°
2026-05-07 23:01 55.05354 -28.45773 36336 ft 499 kts 80°
2026-05-07 23:01 55.05691 -28.33678 36333 ft 500 kts 80°
2026-05-07 23:02 55.06014 -28.21680 36336 ft 500 kts 81°
2026-05-07 23:02 55.06328 -28.09549 36332 ft 500 kts 81°
2026-05-07 23:03 55.06630 -27.97427 36331 ft 500 kts 81°
2026-05-07 23:03 55.06918 -27.85374 36323 ft 500 kts 81°
2026-05-07 23:04 55.07194 -27.73276 36321 ft 500 kts 81°
2026-05-07 23:04 55.07461 -27.61129 36319 ft 500 kts 82°
2026-05-07 23:05 55.07714 -27.49006 36313 ft 500 kts 82°
2026-05-07 23:05 55.07955 -27.36885 36315 ft 500 kts 82°
2026-05-07 23:06 55.08183 -27.24842 36309 ft 500 kts 82°
2026-05-07 23:06 55.08401 -27.12713 36309 ft 500 kts 82°
2026-05-07 23:07 55.08606 -27.00581 36307 ft 500 kts 83°
2026-05-07 23:07 55.08799 -26.88476 36298 ft 500 kts 83°
2026-05-07 23:08 55.08980 -26.76418 36302 ft 500 kts 83°
2026-05-07 23:08 55.09149 -26.64275 36298 ft 500 kts 83°
2026-05-07 23:09 55.09306 -26.52152 36297 ft 501 kts 83°
2026-05-07 23:09 55.09452 -26.40001 36288 ft 501 kts 83°
2026-05-07 23:10 55.09584 -26.27919 36286 ft 501 kts 84°
2026-05-07 23:10 55.09706 -26.15756 36282 ft 501 kts 84°
2026-05-07 23:11 55.09815 -26.03602 36280 ft 501 kts 84°
2026-05-07 23:11 55.09912 -25.91428 36278 ft 501 kts 84°
2026-05-07 23:12 55.09997 -25.79329 36274 ft 502 kts 84°
2026-05-07 23:12 55.10069 -25.67180 36272 ft 502 kts 85°
2026-05-07 23:13 55.10130 -25.54997 36271 ft 502 kts 85°
2026-05-07 23:13 55.10179 -25.42799 36264 ft 502 kts 85°
2026-05-07 23:14 55.10216 -25.30626 36265 ft 502 kts 85°
2026-05-07 23:14 55.10240 -25.18548 36262 ft 502 kts 85°
2026-05-07 23:15 55.10252 -25.06360 36257 ft 502 kts 85°
2026-05-07 23:15 55.10253 -24.94177 36263 ft 502 kts 86°
2026-05-07 23:16 55.10241 -24.82108 36256 ft 502 kts 86°
2026-05-07 23:16 55.10217 -24.69936 36249 ft 502 kts 86°
2026-05-07 23:17 55.10181 -24.57744 36254 ft 502 kts 86°
2026-05-07 23:17 55.10133 -24.45574 36237 ft 502 kts 86°
2026-05-07 23:18 55.10073 -24.33486 36239 ft 502 kts 86°
2026-05-07 23:18 55.10001 -24.21315 36246 ft 501 kts 87°
2026-05-07 23:19 55.09916 -24.09133 36237 ft 501 kts 87°
2026-05-07 23:19 55.09819 -23.96977 36236 ft 502 kts 87°
2026-05-07 23:20 55.09711 -23.84804 36233 ft 502 kts 88°
2026-05-07 23:20 55.09590 -23.72620 36230 ft 502 kts 88°
2026-05-07 23:21 55.09457 -23.60536 36227 ft 502 kts 88°
2026-05-07 23:21 55.09312 -23.48364 36228 ft 502 kts 88°
2026-05-07 23:22 55.09155 -23.36191 36224 ft 502 kts 88°
2026-05-07 23:22 55.08985 -23.24010 36222 ft 502 kts 88°
2026-05-07 23:23 55.08805 -23.11937 36218 ft 502 kts 89°
2026-05-07 23:23 55.08611 -22.99750 36216 ft 502 kts 89°
2026-05-07 23:24 55.08405 -22.87568 36217 ft 502 kts 89°
2026-05-07 23:24 55.08187 -22.75382 36212 ft 502 kts 89°
2026-05-07 23:25 55.07958 -22.63239 36210 ft 502 kts 89°
2026-05-07 23:25 55.07717 -22.51141 36207 ft 502 kts 89°
2026-05-07 23:26 55.07462 -22.38957 36208 ft 502 kts 90°
2026-05-07 23:26 55.07196 -22.26820 36204 ft 502 kts 90°
2026-05-07 23:27 55.06775 -22.08602 36201 ft 502 kts 90°
2026-05-07 23:27 55.06478 -21.96424 36202 ft 503 kts 90°
2026-05-07 23:28 55.06168 -21.84248 36197 ft 503 kts 90°
2026-05-07 23:28 55.05848 -21.72095 36197 ft 503 kts 91°
2026-05-07 23:29 55.05516 -21.59979 36194 ft 503 kts 91°
2026-05-07 23:29 55.05170 -21.47798 36191 ft 503 kts 91°
2026-05-07 23:30 55.04871 -21.37606 36189 ft 503 kts 91°
2026-05-07 23:30 55.04441 -21.23437 36189 ft 504 kts 91°
2026-05-07 23:31 55.04059 -21.11251 36188 ft 504 kts 91°
2026-05-07 23:31 55.03731 -21.01108 36185 ft 504 kts 92°
2026-05-07 23:32 55.03259 -20.86952 36182 ft 504 kts 92°
2026-05-07 23:32 55.02840 -20.74769 36177 ft 504 kts 92°
2026-05-07 23:33 55.02481 -20.64629 36175 ft 504 kts 92°
2026-05-07 23:33 55.02040 -20.52466 36175 ft 504 kts 92°
2026-05-07 23:34 55.01511 -20.38286 36171 ft 504 kts 92°
2026-05-07 23:34 55.01043 -20.26099 36167 ft 505 kts 93°
2026-05-07 23:35 55.00645 -20.15953 36163 ft 505 kts 93°
2026-05-07 23:35 55.00120 -20.03782 36161 ft 505 kts 96°
2026-05-07 23:36 54.98349 -19.89934 36171 ft 505 kts 107°
2026-05-07 23:36 54.96575 -19.80169 36142 ft 506 kts 107°
2026-05-07 23:37 54.94462 -19.68600 36159 ft 506 kts 107°
2026-05-07 23:37 54.92359 -19.56938 36156 ft 506 kts 107°
2026-05-07 23:38 54.90263 -19.45268 36147 ft 506 kts 107°
2026-05-07 23:38 54.88160 -19.33613 36152 ft 505 kts 107°
2026-05-07 23:39 54.86062 -19.22075 36146 ft 506 kts 108°
2026-05-07 23:39 54.83928 -19.10418 36142 ft 507 kts 108°
2026-05-07 23:40 54.81781 -18.98765 36139 ft 508 kts 108°
2026-05-07 23:40 54.79635 -18.87187 36136 ft 509 kts 108°
2026-05-07 23:41 54.77461 -18.75532 36134 ft 509 kts 108°
2026-05-07 23:41 54.75273 -18.63879 36130 ft 509 kts 109°
2026-05-07 23:42 54.73075 -18.52240 36131 ft 508 kts 109°
2026-05-07 23:42 54.70876 -18.40665 36128 ft 507 kts 109°
2026-05-07 23:43 54.68678 -18.29171 36123 ft 507 kts 109°
2026-05-07 23:43 54.66455 -18.17613 36122 ft 507 kts 109°
2026-05-07 23:44 54.64229 -18.06105 36122 ft 506 kts 109°
2026-05-07 23:44 54.61985 -17.94577 36120 ft 506 kts 109°
2026-05-07 23:45 54.59746 -17.83144 36117 ft 507 kts 110°
2026-05-07 23:45 54.57480 -17.71644 36114 ft 507 kts 110°
2026-05-07 23:46 54.55205 -17.60160 36115 ft 507 kts 110°
2026-05-07 23:46 54.52921 -17.48701 36110 ft 507 kts 110°
2026-05-07 23:47 54.50624 -17.37246 36109 ft 506 kts 110°
2026-05-07 23:47 54.48315 -17.25796 36106 ft 506 kts 110°
2026-05-07 23:48 54.46011 -17.14433 36104 ft 506 kts 111°
2026-05-07 23:48 54.43689 -17.03052 36104 ft 506 kts 111°
2026-05-07 23:49 54.41347 -16.91637 36105 ft 506 kts 111°
2026-05-07 23:49 54.38998 -16.80255 36101 ft 506 kts 111°
2026-05-07 23:50 54.36651 -16.68946 36100 ft 506 kts 111°
2026-05-07 23:50 54.34276 -16.57566 36094 ft 506 kts 111°
2026-05-07 23:51 54.31902 -16.46250 36094 ft 506 kts 112°
2026-05-07 23:51 54.29506 -16.34901 36093 ft 506 kts 112°
2026-05-07 23:52 54.27119 -16.23651 36093 ft 506 kts 112°
2026-05-07 23:52 54.24703 -16.12332 36089 ft 506 kts 112°
2026-05-07 23:53 54.22285 -16.01062 36086 ft 506 kts 112°
2026-05-07 23:53 54.19849 -15.89772 36086 ft 506 kts 112°
2026-05-07 23:54 54.17420 -15.78580 36086 ft 506 kts 113°
2026-05-07 23:54 54.14965 -15.67326 36083 ft 506 kts 113°
2026-05-07 23:55 54.12499 -15.56083 36080 ft 506 kts 113°
2026-05-07 23:55 54.10028 -15.44876 36078 ft 506 kts 113°
2026-05-07 23:56 54.07558 -15.33736 36080 ft 506 kts 113°
2026-05-07 23:56 54.05064 -15.22541 36079 ft 506 kts 114°
2026-05-07 23:57 54.02556 -15.11343 36075 ft 506 kts 114°
2026-05-07 23:57 54.00578 -14.99857 36079 ft 510 kts 102°
2026-05-07 23:58 53.99900 -14.87828 36064 ft 514 kts 92°
2026-05-07 23:58 53.99982 -14.75655 36072 ft 515 kts 91°
2026-05-07 23:59 54.00075 -14.63565 36067 ft 515 kts 91°
2026-05-07 23:59 54.00102 -14.51407 36067 ft 516 kts 92°
2026-05-08 00:00 54.00094 -14.39220 36054 ft 516 kts 92°
2026-05-08 00:00 54.00077 -14.27092 36064 ft 516 kts 92°
2026-05-08 00:01 54.00053 -14.14930 36068 ft 516 kts 92°
2026-05-08 00:01 53.99510 -14.02837 36072 ft 510 kts 107°
2026-05-08 00:02 53.97004 -13.91689 36042 ft 502 kts 124°
2026-05-08 00:02 53.93235 -13.81786 36059 ft 499 kts 127°
2026-05-08 00:03 53.89417 -13.72031 36056 ft 500 kts 127°
2026-05-08 00:03 53.85613 -13.62198 36052 ft 500 kts 127°
2026-05-08 00:04 53.81822 -13.52327 36044 ft 500 kts 127°
2026-05-08 00:04 53.78034 -13.42467 36045 ft 500 kts 127°
2026-05-08 00:05 53.74257 -13.32682 36047 ft 500 kts 127°
2026-05-08 00:05 53.70454 -13.22874 36044 ft 500 kts 127°
2026-05-08 00:06 53.66638 -13.13073 36046 ft 500 kts 127°
2026-05-08 00:06 53.62810 -13.03283 36044 ft 500 kts 127°
2026-05-08 00:07 53.58971 -12.93500 36043 ft 501 kts 128°
2026-05-08 00:07 53.55151 -12.83804 36040 ft 501 kts 128°
2026-05-08 00:08 53.51300 -12.74067 36039 ft 501 kts 128°
2026-05-08 00:08 53.47437 -12.64338 36038 ft 501 kts 128°
2026-05-08 00:09 53.43585 -12.54670 36036 ft 501 kts 128°
2026-05-08 00:09 53.39703 -12.44968 36034 ft 502 kts 128°
2026-05-08 00:10 53.35813 -12.35283 36043 ft 503 kts 128°
2026-05-08 00:10 53.33856 -12.30426 36207 ft 505 kts 128°
2026-05-08 00:10 53.31895 -12.25567 36516 ft 504 kts 128°
2026-05-08 00:11 53.29937 -12.20724 36844 ft 502 kts 128°
2026-05-08 00:11 53.28004 -12.15951 37001 ft 504 kts 128°
2026-05-08 00:11 53.24069 -12.06264 37017 ft 502 kts 128°
2026-05-08 00:12 53.20167 -11.96693 37019 ft 499 kts 128°
2026-05-08 00:12 53.16253 -11.87134 37023 ft 499 kts 128°
2026-05-08 00:13 53.12334 -11.77599 37020 ft 499 kts 128°
2026-05-08 00:13 53.08428 -11.68130 37021 ft 500 kts 128°
2026-05-08 00:14 53.04489 -11.58618 37019 ft 501 kts 129°
2026-05-08 00:14 53.00520 -11.49067 37020 ft 503 kts 129°
2026-05-08 00:15 52.96533 -11.39509 37016 ft 504 kts 129°
2026-05-08 00:15 52.92537 -11.29963 37015 ft 505 kts 129°
2026-05-08 00:16 52.88551 -11.20480 37018 ft 506 kts 129°
2026-05-08 00:16 52.84523 -11.10930 37010 ft 506 kts 129°
2026-05-08 00:17 52.80482 -11.01387 37005 ft 506 kts 129°
2026-05-08 00:17 52.76437 -10.91869 37007 ft 506 kts 129°
2026-05-08 00:18 52.72425 -10.82465 37007 ft 506 kts 129°
2026-05-08 00:18 52.68370 -10.72996 37006 ft 506 kts 129°
2026-05-08 00:19 52.64306 -10.63541 37002 ft 505 kts 129°
2026-05-08 00:19 52.60240 -10.54116 37003 ft 505 kts 129°
2026-05-08 00:20 52.56176 -10.44729 37005 ft 505 kts 129°
2026-05-08 00:20 52.52119 -10.35396 36998 ft 505 kts 129°
2026-05-08 00:21 52.48031 -10.26023 37014 ft 505 kts 130°
2026-05-08 00:21 52.43933 -10.16663 37007 ft 505 kts 130°
2026-05-08 00:22 52.39827 -10.07318 37004 ft 506 kts 130°
2026-05-08 00:22 52.35719 -9.98002 37008 ft 506 kts 130°
2026-05-08 00:23 52.31637 -9.88780 37006 ft 506 kts 130°
2026-05-08 00:23 52.27507 -9.79481 37003 ft 506 kts 130°
2026-05-08 00:24 52.23365 -9.70190 37000 ft 506 kts 130°
2026-05-08 00:24 52.19232 -9.60952 37005 ft 505 kts 130°
2026-05-08 00:25 52.15113 -9.51780 37009 ft 505 kts 130°
2026-05-08 00:25 52.10953 -9.42550 37009 ft 505 kts 130°
2026-05-08 00:26 52.06791 -9.33347 37001 ft 505 kts 130°
2026-05-08 00:26 52.02631 -9.24182 37007 ft 505 kts 130°
2026-05-08 00:27 51.98491 -9.15093 37010 ft 505 kts 130°
2026-05-08 00:27 51.96397 -9.10508 37007 ft 504 kts 130°
2026-05-08 00:29 51.95546 -9.08647 37009 ft 504 kts 130°
2026-05-08 00:29 51.91385 -8.99568 37006 ft 504 kts 130°
2026-05-08 00:30 51.87224 -8.90520 37002 ft 504 kts 130°
2026-05-08 00:30 51.83012 -8.81394 36993 ft 504 kts 130°
2026-05-08 00:31 51.78812 -8.72326 36988 ft 504 kts 130°
2026-05-08 00:31 51.74639 -8.63346 36993 ft 503 kts 130°
2026-05-08 00:32 51.70431 -8.54326 36987 ft 504 kts 130°
2026-05-08 00:32 51.66217 -8.45321 37006 ft 503 kts 130°
2026-05-08 00:33 51.61996 -8.36335 37003 ft 503 kts 130°
2026-05-08 00:33 51.57772 -8.27373 36997 ft 503 kts 130°
2026-05-08 00:34 51.53569 -8.18486 37006 ft 503 kts 130°
2026-05-08 00:34 51.49332 -8.09556 37009 ft 503 kts 130°
2026-05-08 00:35 51.45090 -8.00649 37014 ft 503 kts 131°
2026-05-08 00:35 51.40842 -7.91758 37014 ft 502 kts 131°
2026-05-08 00:36 51.36619 -7.82952 37018 ft 502 kts 131°
2026-05-08 00:36 51.32355 -7.74088 37023 ft 502 kts 131°
2026-05-08 00:37 51.28102 -7.65275 37025 ft 502 kts 131°
2026-05-08 00:38 51.21689 -7.52062 37025 ft 502 kts 131°
2026-05-08 00:38 51.17410 -7.43355 37025 ft 502 kts 131°
2026-05-08 00:39 51.13103 -7.34625 37028 ft 502 kts 131°
2026-05-08 00:39 51.08793 -7.25908 37032 ft 502 kts 131°
2026-05-08 00:40 51.04470 -7.17188 37035 ft 502 kts 131°
2026-05-08 00:40 51.00145 -7.08491 37026 ft 502 kts 131°
2026-05-08 00:41 50.95854 -6.99891 37023 ft 502 kts 131°
2026-05-08 00:41 50.91513 -6.91221 37024 ft 502 kts 131°
2026-05-08 00:42 50.87167 -6.82570 37024 ft 502 kts 131°
2026-05-08 00:42 50.82822 -6.73951 37029 ft 502 kts 131°
2026-05-08 00:43 50.78495 -6.65395 37025 ft 502 kts 131°
2026-05-08 00:43 50.74130 -6.56793 37025 ft 502 kts 131°
2026-05-08 00:44 50.69760 -6.48209 37024 ft 502 kts 131°
2026-05-08 00:44 50.65391 -6.39655 37026 ft 502 kts 131°
2026-05-08 00:45 50.61002 -6.31091 37021 ft 502 kts 131°
2026-05-08 00:45 50.56641 -6.22608 37023 ft 502 kts 131°
2026-05-08 00:46 50.52253 -6.14101 37020 ft 502 kts 131°
2026-05-08 00:46 50.48211 -6.06290 37020 ft 502 kts 131°
2026-05-08 00:47 50.43803 -5.97799 37015 ft 502 kts 131°
2026-05-08 00:47 50.39386 -5.89317 37015 ft 502 kts 131°
2026-05-08 00:48 50.34996 -5.80914 37014 ft 502 kts 131°
2026-05-08 00:48 50.30565 -5.72459 37008 ft 502 kts 131°
2026-05-08 00:49 50.26133 -5.64032 36999 ft 502 kts 131°
2026-05-08 00:49 50.21701 -5.55631 36998 ft 502 kts 131°
2026-05-08 00:50 50.17254 -5.47229 36988 ft 502 kts 131°
2026-05-08 00:50 50.12829 -5.38895 36999 ft 502 kts 131°
2026-05-08 00:51 50.08372 -5.30526 36986 ft 502 kts 132°
2026-05-08 00:51 50.03917 -5.22189 36995 ft 502 kts 132°
2026-05-08 00:52 49.99478 -5.13908 36998 ft 502 kts 132°
2026-05-08 00:52 49.95002 -5.05584 36996 ft 502 kts 132°
2026-05-08 00:53 49.90536 -4.97306 37005 ft 502 kts 132°
2026-05-08 00:53 49.86055 -4.89025 37008 ft 501 kts 132°
2026-05-08 00:54 49.81593 -4.80806 37011 ft 501 kts 132°
2026-05-08 00:54 49.77103 -4.72557 37007 ft 501 kts 132°
2026-05-08 00:55 49.72619 -4.64343 37008 ft 501 kts 132°
2026-05-08 00:55 49.68546 -4.55579 37011 ft 503 kts 124°
2026-05-08 00:56 49.64768 -4.46484 37007 ft 503 kts 125°
2026-05-08 00:56 49.61036 -4.37477 37006 ft 504 kts 120°
2026-05-08 00:57 49.58224 -4.27577 37012 ft 506 kts 110°
2026-05-08 00:57 49.56460 -4.17085 37014 ft 507 kts 104°
2026-05-08 00:58 49.54912 -4.06496 37005 ft 507 kts 103°
2026-05-08 00:58 49.53335 -3.95936 37007 ft 507 kts 104°
2026-05-08 00:59 49.51726 -3.85460 37009 ft 507 kts 104°
2026-05-08 00:59 49.50082 -3.74912 37007 ft 506 kts 104°
2026-05-08 01:00 49.48435 -3.64413 37005 ft 506 kts 104°
2026-05-08 01:00 49.46779 -3.53907 37013 ft 506 kts 105°
2026-05-08 01:01 49.45124 -3.43471 37010 ft 505 kts 105°
2026-05-08 01:01 49.43453 -3.32998 37009 ft 505 kts 105°
2026-05-08 01:02 49.41775 -3.22547 37010 ft 505 kts 105°
2026-05-08 01:02 49.40084 -3.12084 37014 ft 505 kts 105°
2026-05-08 01:03 49.38395 -3.01699 37014 ft 504 kts 105°
2026-05-08 01:03 49.36691 -2.91284 37014 ft 504 kts 105°
2026-05-08 01:04 49.34975 -2.80862 37028 ft 504 kts 105°
2026-05-08 01:04 49.33251 -2.70452 37027 ft 504 kts 105°
2026-05-08 01:05 49.31515 -2.60037 37028 ft 504 kts 106°
2026-05-08 01:05 49.29787 -2.49735 37023 ft 504 kts 106°
2026-05-08 01:06 49.28036 -2.39351 37021 ft 503 kts 106°
2026-05-08 01:06 49.26278 -2.28991 37020 ft 503 kts 106°
2026-05-08 01:07 49.24512 -2.18643 37012 ft 503 kts 106°
2026-05-08 01:07 49.22734 -2.08279 37025 ft 503 kts 106°
2026-05-08 01:08 49.21017 -1.97965 37023 ft 504 kts 105°
2026-05-08 01:08 49.19434 -1.87537 37023 ft 504 kts 104°
2026-05-08 01:09 49.17862 -1.77115 37020 ft 504 kts 104°
2026-05-08 01:09 49.16256 -1.66687 37026 ft 504 kts 105°
2026-05-08 01:10 49.14641 -1.56357 37028 ft 504 kts 105°
2026-05-08 01:10 49.13005 -1.45983 37025 ft 504 kts 105°
2026-05-08 01:11 49.11358 -1.35591 37028 ft 503 kts 105°
2026-05-08 01:11 49.09704 -1.25215 37026 ft 503 kts 105°
2026-05-08 01:12 49.08097 -1.15196 37024 ft 503 kts 105°
2026-05-08 01:12 49.06431 -1.04875 37028 ft 502 kts 105°
2026-05-08 01:13 49.04754 -0.94548 37028 ft 502 kts 105°
2026-05-08 01:13 49.03066 -0.84218 37028 ft 502 kts 105°
2026-05-08 01:14 49.01373 -0.73917 37025 ft 502 kts 105°
2026-05-08 01:14 48.99670 -0.63621 37027 ft 502 kts 105°
2026-05-08 01:15 48.97968 -0.53396 37027 ft 501 kts 105°
2026-05-08 01:15 48.96247 -0.43114 37030 ft 502 kts 105°
2026-05-08 01:16 48.94520 -0.32855 37027 ft 502 kts 106°
2026-05-08 01:16 48.92780 -0.22585 37031 ft 501 kts 106°
2026-05-08 01:17 48.91044 -0.12396 37036 ft 501 kts 106°
2026-05-08 01:17 48.89292 -0.02172 37042 ft 501 kts 106°
2026-05-08 01:18 48.87526 0.08071 37045 ft 501 kts 106°
2026-05-08 01:18 48.85753 0.18292 37045 ft 500 kts 106°
2026-05-08 01:19 48.83986 0.28427 37046 ft 500 kts 107°
2026-05-08 01:19 48.82198 0.38618 37044 ft 500 kts 107°
2026-05-08 01:20 48.80408 0.48766 37049 ft 499 kts 107°
2026-05-08 01:20 48.78606 0.58936 37047 ft 499 kts 107°
2026-05-08 01:21 48.76814 0.69104 37051 ft 499 kts 105°
2026-05-08 01:21 48.75458 0.79351 37060 ft 500 kts 102°
2026-05-08 01:22 48.74186 0.89686 37053 ft 500 kts 102°
2026-05-08 01:22 48.72885 1.00044 37051 ft 500 kts 103°
2026-05-08 01:23 48.71556 1.10370 37048 ft 500 kts 103°
2026-05-08 01:23 48.70209 1.20716 37044 ft 500 kts 103°
2026-05-08 01:24 48.68862 1.30980 37046 ft 500 kts 103°
2026-05-08 01:24 48.67503 1.41274 37049 ft 500 kts 103°
2026-05-08 01:25 48.66132 1.51593 37047 ft 500 kts 103°
2026-05-08 01:25 48.64750 1.61911 37044 ft 500 kts 103°
2026-05-08 01:26 48.63360 1.72217 37038 ft 500 kts 103°
2026-05-08 01:26 48.62018 1.82102 37044 ft 500 kts 103°
2026-05-08 01:27 48.60612 1.92384 37041 ft 500 kts 104°
2026-05-08 01:27 48.59197 2.02671 37046 ft 500 kts 104°
2026-05-08 01:28 48.57707 2.12911 37038 ft 498 kts 109°
2026-05-08 01:28 48.56445 2.17693 37059 ft 494 kts 120°
2026-05-08 01:28 48.54698 2.22137 37036 ft 491 kts 128°
2026-05-08 01:29 48.50170 2.29684 37062 ft 486 kts 139°
2026-05-08 01:29 48.45312 2.36791 37054 ft 487 kts 138°
2026-05-08 01:30 48.40500 2.43968 37047 ft 488 kts 137°
2026-05-08 01:30 48.35748 2.51134 37055 ft 488 kts 137°
2026-05-08 01:31 48.30914 2.58300 37044 ft 487 kts 141°
2026-05-08 01:31 48.25466 2.64208 37048 ft 481 kts 152°
2026-05-08 01:32 48.19509 2.68685 37048 ft 479 kts 156°
2026-05-08 01:32 48.13647 2.73444 37044 ft 480 kts 154°
2026-05-08 01:33 48.07810 2.78147 37038 ft 479 kts 157°
2026-05-08 01:33 48.01708 2.82095 37045 ft 478 kts 160°
2026-05-08 01:34 47.95574 2.85928 37039 ft 478 kts 160°
2026-05-08 01:34 47.89465 2.89775 37038 ft 478 kts 160°
2026-05-08 01:35 47.83381 2.93626 37032 ft 478 kts 160°
2026-05-08 01:35 47.77261 2.97495 37029 ft 478 kts 160°
2026-05-08 01:36 47.71146 3.01348 37035 ft 477 kts 160°
2026-05-08 01:36 47.65031 3.05190 37036 ft 478 kts 160°
2026-05-08 01:37 47.58933 3.09014 37032 ft 477 kts 160°
2026-05-08 01:37 47.52857 3.12812 37033 ft 477 kts 160°
2026-05-08 01:38 47.46727 3.16628 37030 ft 477 kts 160°
2026-05-08 01:38 47.40608 3.20426 37026 ft 477 kts 160°
2026-05-08 01:39 47.34499 3.24212 37027 ft 477 kts 160°
2026-05-08 01:39 47.28416 3.27973 37022 ft 477 kts 160°
2026-05-08 01:40 47.22298 3.31746 37019 ft 477 kts 160°
2026-05-08 01:40 47.16185 3.35507 37025 ft 476 kts 160°
2026-05-08 01:41 47.10061 3.39265 37025 ft 477 kts 160°
2026-05-08 01:41 47.03961 3.42999 37023 ft 477 kts 160°
2026-05-08 01:42 46.97875 3.46714 37023 ft 477 kts 160°
2026-05-08 01:42 46.91759 3.50440 37024 ft 477 kts 160°
2026-05-08 01:43 46.85632 3.54163 37016 ft 477 kts 160°
2026-05-08 01:43 46.79514 3.57873 37021 ft 477 kts 160°
2026-05-08 01:44 46.73587 3.62012 37010 ft 480 kts 144°
2026-05-08 01:44 46.71223 3.65462 37024 ft 485 kts 129°
2026-05-08 01:44 46.69504 3.69709 37020 ft 491 kts 114°
2026-05-08 01:45 46.67824 3.79393 37026 ft 496 kts 104°
2026-05-08 01:45 46.66276 3.89171 37022 ft 498 kts 106°
2026-05-08 01:46 46.64573 3.98958 37022 ft 500 kts 106°
2026-05-08 01:46 46.62876 4.08706 37024 ft 500 kts 106°
2026-05-08 01:47 46.61170 4.18501 37024 ft 500 kts 106°
2026-05-08 01:47 46.59459 4.28290 37020 ft 499 kts 106°
2026-05-08 01:48 46.56881 4.42921 37026 ft 497 kts 106°
2026-05-08 01:48 46.55170 4.52560 37016 ft 496 kts 107°
2026-05-08 01:49 46.53441 4.62250 37024 ft 496 kts 107°
2026-05-08 01:49 46.51703 4.71941 37027 ft 495 kts 107°
2026-05-08 01:50 46.49960 4.81611 37022 ft 496 kts 107°
2026-05-08 01:50 46.48205 4.91291 37023 ft 496 kts 107°
2026-05-08 01:51 46.46460 5.00878 37027 ft 496 kts 107°
2026-05-08 01:51 46.44691 5.10539 37025 ft 496 kts 107°
2026-05-08 01:52 46.42896 5.20210 37027 ft 497 kts 107°
2026-05-08 01:52 46.41091 5.29881 37030 ft 497 kts 107°
2026-05-08 01:53 46.39005 5.39304 37026 ft 494 kts 117°
2026-05-08 01:53 46.35539 5.47814 37031 ft 489 kts 130°
2026-05-08 01:54 46.31152 5.55288 37030 ft 487 kts 134°
2026-05-08 01:54 46.26685 5.62674 37041 ft 488 kts 134°
2026-05-08 01:55 46.22991 5.68841 37042 ft 488 kts 134°
2026-05-08 01:55 46.17860 5.77470 37045 ft 489 kts 134°
2026-05-08 01:56 46.13435 5.84909 37057 ft 489 kts 134°
2026-05-08 01:56 46.08994 5.92350 37030 ft 489 kts 134°
2026-05-08 01:57 46.05301 5.98518 37031 ft 489 kts 134°
2026-05-08 01:57 46.00848 6.05936 37026 ft 490 kts 134°
2026-05-08 01:58 45.95667 6.14543 37021 ft 491 kts 134°
2026-05-08 01:58 45.91915 6.20761 37023 ft 492 kts 134°
2026-05-08 01:59 45.87454 6.28137 37025 ft 493 kts 135°
2026-05-08 01:59 45.82965 6.35526 37020 ft 493 kts 136°
2026-05-08 02:00 45.77961 6.42156 37019 ft 486 kts 148°
2026-05-08 02:00 45.72452 6.47714 37024 ft 484 kts 149°
2026-05-08 02:01 45.66970 6.53190 37024 ft 482 kts 149°
2026-05-08 02:01 45.61514 6.58694 37023 ft 481 kts 149°
2026-05-08 02:02 45.56058 6.64219 37033 ft 481 kts 149°
2026-05-08 02:02 45.50581 6.69748 37021 ft 482 kts 149°
2026-05-08 02:03 45.45126 6.75242 37041 ft 482 kts 149°
2026-05-08 02:03 45.39678 6.80715 37045 ft 482 kts 149°
2026-05-08 02:04 45.34181 6.86223 37044 ft 484 kts 149°
2026-05-08 02:04 45.28678 6.91726 37054 ft 484 kts 149°
2026-05-08 02:05 45.23485 6.97837 37059 ft 490 kts 140°
2026-05-08 02:05 45.18652 7.04667 37065 ft 491 kts 139°
2026-05-08 02:06 45.13808 7.11402 37062 ft 490 kts 140°
2026-05-08 02:06 45.09189 7.18448 37065 ft 492 kts 131°
2026-05-08 02:07 45.05284 7.26420 37061 ft 493 kts 128°
2026-05-08 02:07 45.01394 7.34400 37066 ft 492 kts 129°
2026-05-08 02:08 44.97337 7.42058 37046 ft 489 kts 135°
2026-05-08 02:08 44.92587 7.48830 37049 ft 486 kts 140°
2026-05-08 02:09 44.87740 7.55485 37034 ft 487 kts 140°
2026-05-08 02:09 44.82896 7.62175 37015 ft 488 kts 140°
2026-05-08 02:10 44.78060 7.68888 37018 ft 489 kts 140°
2026-05-08 02:10 44.73253 7.75562 37020 ft 489 kts 140°
2026-05-08 02:11 44.68412 7.82265 37017 ft 489 kts 140°
2026-05-08 02:11 44.63567 7.88954 37018 ft 488 kts 140°
2026-05-08 02:12 44.58726 7.95620 37016 ft 488 kts 140°
2026-05-08 02:12 44.53875 8.02284 37025 ft 488 kts 140°
2026-05-08 02:13 44.49055 8.08888 37017 ft 488 kts 140°
2026-05-08 02:13 44.44221 8.15496 37020 ft 487 kts 140°
2026-05-08 02:14 44.39368 8.22112 37016 ft 487 kts 140°
2026-05-08 02:14 44.34525 8.28701 37006 ft 486 kts 141°
2026-05-08 02:15 44.29720 8.35221 36996 ft 485 kts 141°
2026-05-08 02:15 44.24889 8.41760 37005 ft 484 kts 141°
2026-05-08 02:16 44.20063 8.48277 37001 ft 483 kts 141°
2026-05-08 02:16 44.15234 8.54782 36991 ft 483 kts 141°
2026-05-08 02:17 44.10441 8.61222 36990 ft 482 kts 141°
2026-05-08 02:17 44.05616 8.67691 36987 ft 482 kts 141°
2026-05-08 02:18 44.00777 8.74163 36988 ft 483 kts 141°
2026-05-08 02:18 43.95940 8.80617 36988 ft 483 kts 141°
2026-05-08 02:19 43.91100 8.87059 36983 ft 483 kts 142°
2026-05-08 02:19 43.86276 8.93466 36988 ft 483 kts 142°
2026-05-08 02:20 43.81415 8.99905 36987 ft 484 kts 142°
2026-05-08 02:20 43.76558 9.06325 36985 ft 484 kts 141°
2026-05-08 02:21 43.71684 9.12752 36986 ft 484 kts 141°
2026-05-08 02:21 43.66802 9.19174 36983 ft 485 kts 142°
2026-05-08 02:22 43.61946 9.25547 36979 ft 485 kts 142°
2026-05-08 02:22 43.57056 9.31950 36976 ft 485 kts 141°
2026-05-08 02:23 43.52167 9.38336 36977 ft 485 kts 141°
2026-05-08 02:23 43.47282 9.44702 36973 ft 486 kts 141°
2026-05-08 02:24 43.42381 9.51074 36990 ft 486 kts 141°
2026-05-08 02:24 43.37458 9.57460 36985 ft 486 kts 141°
2026-05-08 02:25 43.32537 9.63828 36975 ft 487 kts 141°
2026-05-08 02:25 43.27598 9.70205 36974 ft 487 kts 142°
2026-05-08 02:26 43.22669 9.76553 36968 ft 487 kts 142°
2026-05-08 02:26 43.17761 9.82860 36968 ft 487 kts 142°
2026-05-08 02:27 43.12810 9.89208 36970 ft 488 kts 142°
2026-05-08 02:27 43.08487 9.94737 36621 ft 492 kts 142°
2026-05-08 02:28 43.05975 9.97943 36068 ft 491 kts 142°
2026-05-08 02:28 43.03498 10.01108 35515 ft 485 kts 142°
2026-05-08 02:28 43.01084 10.04190 34953 ft 479 kts 143°
2026-05-08 02:28 42.98660 10.07280 34405 ft 474 kts 143°
2026-05-08 02:29 42.96260 10.10334 33856 ft 468 kts 143°
2026-05-08 02:29 42.93892 10.13341 33250 ft 463 kts 143°
2026-05-08 02:29 42.91555 10.16303 32715 ft 458 kts 143°
2026-05-08 02:29 42.89233 10.19243 32185 ft 453 kts 142°
2026-05-08 02:30 42.86934 10.22152 31663 ft 449 kts 142°
2026-05-08 02:30 42.84654 10.25035 31141 ft 445 kts 142°
2026-05-08 02:30 42.82398 10.27884 30639 ft 441 kts 142°
2026-05-08 02:30 42.80188 10.30674 30135 ft 438 kts 142°
2026-05-08 02:31 42.77961 10.33482 29564 ft 434 kts 142°
2026-05-08 02:31 42.75788 10.36278 29014 ft 430 kts 137°
2026-05-08 02:31 42.74054 10.39595 28474 ft 434 kts 121°
2026-05-08 02:31 42.72985 10.43444 28000 ft 435 kts 107°
2026-05-08 02:32 42.72626 10.47525 27510 ft 435 kts 95°
2026-05-08 02:32 42.72548 10.51611 27018 ft 432 kts 94°
2026-05-08 02:32 42.72447 10.55681 26519 ft 429 kts 95°
2026-05-08 02:32 42.72303 10.59723 26018 ft 426 kts 96°
2026-05-08 02:33 42.72016 10.63610 25540 ft 416 kts 106°
2026-05-08 02:33 42.70971 10.67202 25057 ft 404 kts 125°
2026-05-08 02:33 42.69478 10.70379 24606 ft 398 kts 126°
2026-05-08 02:33 42.67982 10.73547 24141 ft 397 kts 126°
2026-05-08 02:34 42.66504 10.76702 23650 ft 396 kts 125°
2026-05-08 02:34 42.65033 10.79866 23118 ft 395 kts 125°
2026-05-08 02:34 42.63577 10.83017 22593 ft 393 kts 124°
2026-05-08 02:34 42.62139 10.86138 22107 ft 390 kts 124°
2026-05-08 02:35 42.60706 10.89252 21637 ft 387 kts 124°
2026-05-08 02:35 42.59287 10.92336 21166 ft 384 kts 124°
2026-05-08 02:35 42.57895 10.95356 20713 ft 382 kts 124°
2026-05-08 02:35 42.56488 10.98408 20255 ft 379 kts 123°
2026-05-08 02:36 42.55095 11.01427 19800 ft 377 kts 123°
2026-05-08 02:36 42.53703 11.04439 19337 ft 375 kts 123°
2026-05-08 02:36 42.52323 11.07422 18891 ft 374 kts 123°
2026-05-08 02:36 42.50946 11.10396 18429 ft 372 kts 123°
2026-05-08 02:37 42.49571 11.13363 17925 ft 371 kts 123°
2026-05-08 02:37 42.48205 11.16311 17411 ft 369 kts 123°
2026-05-08 02:37 42.46840 11.19252 16931 ft 366 kts 123°
2026-05-08 02:37 42.45507 11.22119 16489 ft 363 kts 123°
2026-05-08 02:38 42.44165 11.25003 16048 ft 360 kts 123°
2026-05-08 02:38 42.42844 11.27837 15621 ft 357 kts 123°
2026-05-08 02:38 42.41521 11.30672 15174 ft 355 kts 123°
2026-05-08 02:38 42.40210 11.33477 14744 ft 352 kts 123°
2026-05-08 02:39 42.38901 11.36275 14320 ft 350 kts 123°
2026-05-08 02:39 42.37606 11.39042 13897 ft 348 kts 123°
2026-05-08 02:39 42.36315 11.41799 13437 ft 346 kts 123°
2026-05-08 02:39 42.35030 11.44543 12978 ft 344 kts 123°
2026-05-08 02:40 42.33779 11.47209 12548 ft 341 kts 123°
2026-05-08 02:40 42.32519 11.49894 12116 ft 333 kts 123°
2026-05-08 02:40 42.31303 11.52483 11702 ft 320 kts 123°
2026-05-08 02:40 42.30134 11.54970 11309 ft 308 kts 123°
2026-05-08 02:41 42.29007 11.57365 10941 ft 297 kts 123°
2026-05-08 02:41 42.27916 11.59681 10588 ft 289 kts 123°
2026-05-08 02:41 42.26846 11.61951 10322 ft 286 kts 123°
2026-05-08 02:41 42.25801 11.64168 10217 ft 282 kts 123°
2026-05-08 02:42 42.24762 11.66370 10081 ft 275 kts 123°
2026-05-08 02:42 42.23751 11.68511 9948 ft 266 kts 123°
2026-05-08 02:42 42.22760 11.70607 9717 ft 264 kts 123°
2026-05-08 02:42 42.21773 11.72691 9484 ft 265 kts 123°
2026-05-08 02:43 42.20785 11.74845 9184 ft 274 kts 121°
2026-05-08 02:43 42.19810 11.77074 8866 ft 276 kts 121°
2026-05-08 02:43 42.18844 11.79300 8535 ft 276 kts 121°
2026-05-08 02:43 42.17874 11.81531 8235 ft 275 kts 121°
2026-05-08 02:44 42.16911 11.83745 7922 ft 274 kts 121°
2026-05-08 02:44 42.15958 11.85928 7621 ft 273 kts 121°
2026-05-08 02:44 42.14994 11.88133 7318 ft 272 kts 121°
2026-05-08 02:44 42.14034 11.90324 7011 ft 272 kts 121°
2026-05-08 02:45 42.13072 11.92519 6721 ft 271 kts 121°
2026-05-08 02:45 42.12116 11.94697 6412 ft 271 kts 121°
2026-05-08 02:45 42.11157 11.96881 6088 ft 271 kts 121°
2026-05-08 02:45 42.10199 11.99061 5765 ft 270 kts 121°
2026-05-08 02:46 42.09255 12.01205 5467 ft 270 kts 120°
2026-05-08 02:46 42.08300 12.03375 5153 ft 267 kts 120°
2026-05-08 02:46 42.07369 12.05489 4856 ft 258 kts 120°
2026-05-08 02:46 42.06469 12.07530 4557 ft 249 kts 120°
2026-05-08 02:47 42.05609 12.09478 4290 ft 240 kts 120°
2026-05-08 02:47 42.04776 12.11363 4192 ft 230 kts 120°
2026-05-08 02:47 42.03970 12.13189 4094 ft 225 kts 119°
2026-05-08 02:47 42.03218 12.15017 3999 ft 220 kts 117°
2026-05-08 02:48 42.02505 12.16795 3873 ft 212 kts 117°
2026-05-08 02:48 42.01699 12.18365 3632 ft 203 kts 142°
2026-05-08 02:48 42.00485 12.19210 3475 ft 194 kts 155°
2026-05-08 02:48 41.99241 12.19916 3226 ft 194 kts 158°
2026-05-08 02:49 41.97981 12.20510 2946 ft 191 kts 160°
2026-05-08 02:49 41.96721 12.21051 2686 ft 190 kts 161°
2026-05-08 02:49 41.95476 12.21576 2436 ft 183 kts 160°
2026-05-08 02:49 41.94310 12.22064 2207 ft 169 kts 160°
2026-05-08 02:50 41.93222 12.22523 1982 ft 158 kts 159°
2026-05-08 02:50 41.92204 12.22952 1797 ft 151 kts 159°
2026-05-08 02:50 41.91219 12.23367 1632 ft 151 kts 159°
2026-05-08 02:50 41.90198 12.23800 1429 ft 151 kts 160°
2026-05-08 02:51 41.89204 12.24226 1219 ft 152 kts 160°
2026-05-08 02:51 41.88197 12.24645 761 ft 149 kts 161°
2026-05-08 02:51 41.87210 12.25059 570 ft 148 kts 162°
2026-05-08 02:51 41.86226 12.25475 412 ft 151 kts 162°
2026-05-08 02:52 41.85221 12.25892 225 ft 151 kts 162°
2026-05-08 02:52 41.84224 12.26306 40 ft 147 kts 162°
2026-05-08 02:52 41.83331 12.26681 26 ft 120 kts 162°
2026-05-08 02:52 41.82686 12.26950 28 ft 77 kts 162°
2026-05-08 02:53 41.82289 12.27111 18 ft 54 kts 168°
2026-05-08 02:53 41.81974 12.27112 18 ft 34 kts 192°
2026-05-08 02:53 41.81851 12.27077 26 ft 17 kts 192°
2026-05-08 02:53 41.81733 12.27050 23 ft 17 kts 183°
2026-05-08 02:54 41.81616 12.27075 29 ft 17 kts 162°
2026-05-08 02:54 41.81502 12.27123 31 ft 17 kts 162°
2026-05-08 02:54 41.81388 12.27170 26 ft 17 kts 163°
2026-05-08 02:54 41.81264 12.27221 23 ft 20 kts 163°
2026-05-08 02:55 41.81133 12.27275 22 ft 20 kts 163°
2026-05-08 02:55 41.80867 12.27340 19 ft 20 kts 188°
2026-05-08 02:55 41.80741 12.27310 19 ft 18 kts 193°
2026-05-08 02:56 41.80652 12.27206 19 ft 18 kts 245°
2026-05-08 02:56 41.80609 12.27051 19 ft 18 kts 249°
2026-05-08 02:56 41.80565 12.26897 20 ft 18 kts 249°
2026-05-08 02:56 41.80523 12.26743 19 ft 18 kts 250°
2026-05-08 02:57 41.80481 12.26588 20 ft 18 kts 250°
2026-05-08 02:57 41.80438 12.26434 20 ft 18 kts 250°
2026-05-08 02:57 41.80394 12.26277 19 ft 18 kts 249°
2026-05-08 02:57 41.80352 12.26119 19 ft 18 kts 250°
2026-05-08 02:58 41.80308 12.25962 18 ft 18 kts 250°
2026-05-08 02:58 41.80264 12.25801 20 ft 18 kts 249°
2026-05-08 02:58 41.80219 12.25641 24 ft 18 kts 250°
2026-05-08 02:58 41.80175 12.25480 29 ft 18 kts 250°
2026-05-08 02:59 41.80131 12.25320 27 ft 19 kts 250°
2026-05-08 02:59 41.80097 12.25153 24 ft 19 kts 266°
2026-05-08 02:59 41.80109 12.24979 26 ft 19 kts 274°
2026-05-08 02:59 41.80086 12.24802 21 ft 20 kts 252°
2026-05-08 03:00 41.80041 12.24636 21 ft 18 kts 250°
2026-05-08 03:00 41.79996 12.24473 16 ft 19 kts 249°
2026-05-08 03:00 41.79952 12.24313 18 ft 18 kts 250°
2026-05-08 03:00 41.79901 12.24264 19 ft 9 kts 177°
2026-05-08 03:01 41.79834 12.24279 19 ft 10 kts 196°
2026-05-08 03:01 41.79791 12.24205 19 ft 11 kts 245°
2026-05-08 03:01 41.79729 12.24169 19 ft 9 kts 183°
2026-05-08 03:01 41.79685 12.24184 20 ft 0 kts 163°